Location: Newark
(42.8481°N, 0.4872°E)
Time: 09:02:10
(UTC+00:00)

A-11 Canister half - Pass Details

Date: 27 October 2020
Orbit: 1516 x 1684 km, 47.2° (Epoch: 04 December)

Event Time Altitude Azimuth Distance (km) Brightness Sun altitude
Exits shadow 01:50:51 19° 116° (ESE) 3,103 10.7 -49.1°
Drops below altitude 10° 01:52:51 10° 116° (ESE) 3,726 11.2 -48.8°
Sets 01:55:51 0° 116° (ESE) 4,691 11.8 -48.4°
